QPF
0.02 0.03 0.02 0.01 0.01 0.01 0.01 0.01 0.01 0.01 0.01 0.01 0.01 0.01 0.01 0.01 0.02 0.04 0.05 0.04 0.04 0.04 0.03 0.02 0.02 0.02 0.02 0.02 0.02 0.03 0.03 0.02 0.02 0.02 0.01 0.02 0.02 0.02 0.02 0.03 0.03 0.04 0.04
0.03 0.02 0.02 0.02 0.02 0.02 0.02 0.02 0.02 0.02 0.02 0.01 0.01 0.01 0.01 0.01 0.01 0.01 0.02 0.03 0.04 0.05 0.04 0.03 0.03 0.03 0.03 0.03 0.03 0.02 0.03 0.03 0.03 0.02 0.02 0.02 0.01 0.02 0.02 0.03 0.04 0.04 0.03
0.03 0.03 0.04 0.05 0.07 0.08 0.08 0.07 0.04 0.03 0.02 0.02 0.01 0.01 0.02 0.01 0.01 0.01 0.01 0.02 0.03 0.03 0.03 0.04 0.04 0.04 0.03 0.02 0.03 0.03 0.04 0.04 0.04 0.03 0.02 0.03 0.03 0.02 0.02 0.02 0.04 0.05 0.04
0.04 0.05 0.05 0.07 0.10 0.12 0.12 0.08 0.05 0.03 0.02 0.02 0.01 0.02 0.03 0.02 0.01 0.01 0.01 0.01 0.02 0.02 0.03 0.03 0.03 0.03 0.02 0.02 0.03 0.04 0.05 0.06 0.06 0.05 0.04 0.03 0.03 0.02 0.02 0.02 0.04 0.04 0.04
0.05 0.07 0.08 0.10 0.11 0.12 0.10 0.07 0.04 0.03 0.03 0.03 0.03 0.02 0.03 0.02 0.01 0.01 0.01 0.02 0.02 0.02 0.02 0.02 0.02 0.02 0.02 0.02 0.02 0.03 0.03 0.03 0.04 0.04 0.04 0.03 0.03 0.03 0.03 0.03 0.03 0.04 0.04
0.06 0.08 0.10 0.11 0.09 0.07 0.05 0.04 0.03 0.03 0.03 0.03 0.03 0.03 0.02 0.02 0.02 0.02 0.02 0.01 0.02 0.02 0.02 0.02 0.03 0.03 0.02 0.03 0.04 0.04 0.04 0.04 0.04 0.04 0.03 0.02 0.03 0.04 0.04 0.04 0.04 0.04 0.04
0.10 0.10 0.10 0.09 0.07 0.06 0.05 0.04 0.03 0.03 0.03 0.03 0.03 0.04 0.03 0.03 0.03 0.03 0.04 0.03 0.02 0.02 0.02 0.02 0.03 0.03 0.03 0.03 0.03 0.04 0.03 0.03 0.04 0.04 0.04 0.03 0.03 0.03 0.04 0.03 0.03 0.04 0.04
0.09 0.08 0.08 0.09 0.10 0.11 0.10 0.07 0.06 0.06 0.05 0.05 0.05 0.06 0.05 0.04 0.05 0.04 0.05 0.05 0.04 0.03 0.02 0.02 0.02 0.02 0.02 0.03 0.04 0.03 0.03 0.03 0.03 0.03 0.02 0.01 0.02 0.02 0.03 0.03 0.04 0.03 0.02
0.07 0.07 0.11 0.13 0.11 0.10 0.10 0.09 0.09 0.09 0.08 0.07 0.06 0.05 0.04 0.04 0.05 0.05 0.07 0.07 0.05 0.05 0.04 0.05 0.05 0.04 0.04 0.07 0.07 0.04 0.03 0.03 0.03 0.02 0.01 0.01 0.02 0.03 0.03 0.03 0.03 0.02 0.01
0.07 0.11 0.13 0.14 0.13 0.11 0.10 0.09 0.08 0.08 0.08 0.06 0.04 0.03 0.03 0.03 0.04 0.05 0.06 0.07 0.06 0.05 0.05 0.05 0.05 0.05 0.05 0.06 0.05 0.03 0.03 0.03 0.03 0.03 0.02 0.02 0.02 0.03 0.03 0.02 0.02 0.02 0.01
0.08 0.09 0.14 0.13 0.12 0.11 0.10 0.09 0.08 0.08 0.07 0.06 0.05 0.04 0.04 0.05 0.06 0.06 0.06 0.05 0.04 0.04 0.04 0.03 0.04 0.04 0.05 0.06 0.06 0.04 0.03 0.05 0.05 0.04 0.03 0.02 0.03 0.02 0.03 0.03 0.03 0.03 0.02
0.06 0.06 0.08 0.08 0.08 0.09 0.08 0.08 0.08 0.07 0.08 0.08 0.07 0.06 0.05 0.05 0.06 0.06 0.07 0.06 0.06 0.07 0.06 0.06 0.06 0.07 0.07 0.07 0.07 0.06 0.06 0.07 0.05 0.04 0.03 0.02 0.02 0.02 0.03 0.04 0.03 0.03 0.02
0.05 0.07 0.09 0.10 0.08 0.08 0.08 0.08 0.08 0.08 0.10 0.13 0.14 0.11 0.07 0.06 0.05 0.06 0.06 0.08 0.09 0.09 0.10 0.10 0.09 0.09 0.08 0.08 0.07 0.07 0.07 0.06 0.05 0.04 0.03 0.03 0.04 0.04 0.04 0.03 0.02 0.02 0.01
0.03 0.04 0.04 0.05 0.05 0.05 0.06 0.06 0.06 0.08 0.10 0.13 0.13 0.11 0.09 0.07 0.06 0.06 0.06 0.07 0.08 0.08 0.08 0.08 0.08 0.08 0.08 0.07 0.07 0.07 0.05 0.05 0.04 0.04 0.04 0.04 0.04 0.03 0.02 0.02 0.02 0.02 0.01
0.02 0.02 0.01 0.02 0.03 0.04 0.04 0.05 0.05 0.06 0.08 0.10 0.09 0.08 0.07 0.07 0.08 0.09 0.09 0.09 0.11 0.10 0.09 0.09 0.08 0.08 0.08 0.08 0.08 0.08 0.07 0.06 0.05 0.05 0.05 0.05 0.05 0.04 0.03 0.03 0.03 0.03 0.02
0.01 0.02 0.02 0.02 0.03 0.04 0.03 0.03 0.04 0.05 0.05 0.05 0.05 0.05 0.05 0.05 0.05 0.05 0.04 0.06 0.10 0.12 0.10 0.10 0.11 0.11 0.10 0.09 0.08 0.08 0.08 0.07 0.06 0.05 0.05 0.05 0.04 0.03 0.03 0.03 0.03 0.03 0.03
0.04 0.03 0.03 0.04 0.04 0.04 0.03 0.03 0.04 0.05 0.05 0.04 0.04 0.04 0.04 0.04 0.04 0.04 0.07 0.08 0.09 0.11 0.10 0.11 0.12 0.12 0.11 0.10 0.10 0.13 0.14 0.10 0.08 0.07 0.06 0.05 0.04 0.03 0.03 0.03 0.03 0.03 0.03
0.03 0.03 0.02 0.03 0.03 0.03 0.03 0.04 0.05 0.04 0.04 0.03 0.04 0.04 0.04 0.03 0.03 0.04 0.05 0.07 0.08 0.10 0.10 0.10 0.10 0.10 0.11 0.09 0.09 0.10 0.10 0.08 0.08 0.09 0.08 0.06 0.06 0.06 0.05 0.04 0.03 0.03 0.04
0.03 0.04 0.04 0.03 0.04 0.04 0.05 0.06 0.05 0.04 0.04 0.03 0.03 0.04 0.04 0.05 0.05 0.06 0.06 0.06 0.06 0.07 0.07 0.08 0.09 0.10 0.10 0.10 0.09 0.09 0.08 0.08 0.07 0.07 0.07 0.06 0.06 0.07 0.06 0.05 0.04 0.04 0.05
0.06 0.08 0.06 0.05 0.06 0.07 0.06 0.06 0.06 0.05 0.05 0.05 0.06 0.06 0.06 0.06 0.06 0.06 0.07 0.07 0.06 0.06 0.07 0.07 0.08 0.08 0.07 0.07 0.08 0.08 0.08 0.07 0.06 0.05 0.05 0.06 0.06 0.06 0.07 0.07 0.06 0.05 0.05
0.04 0.05 0.05 0.05 0.05 0.06 0.07 0.06 0.06 0.05 0.05 0.05 0.05 0.05 0.05 0.06 0.06 0.06 0.06 0.08 0.10 0.08 0.08 0.08 0.08 0.08 0.07 0.07 0.07 0.07 0.07 0.06 0.06 0.05 0.06 0.06 0.06 0.06 0.05 0.05 0.05 0.05 0.05
0.03 0.05 0.07 0.04 0.04 0.05 0.06 0.05 0.03 0.03 0.03 0.03 0.03 0.03 0.04 0.04 0.05 0.05 0.05 0.06 0.08 0.09 0.10 0.09 0.08 0.09 0.09 0.07 0.06 0.06 0.06 0.06 0.05 0.04 0.05 0.05 0.06 0.06 0.06 0.05 0.05 0.05 0.04
0.03 0.05 0.08 0.05 0.03 0.03 0.03 0.02 0.02 0.02 0.01 0.01 0.01 0.02 0.02 0.02 0.03 0.03 0.04 0.04 0.04 0.05 0.06 0.06 0.06 0.06 0.05 0.05 0.05 0.05 0.04 0.04 0.04 0.04 0.04 0.04 0.05 0.05 0.06 0.06 0.05 0.05 0.04
0.03 0.04 0.06 0.06 0.03 0.02 0.01 0.01 0.01 0.01 0.01 0.01 0.02 0.02 0.02 0.02 0.02 0.03 0.03 0.03 0.03 0.03 0.04 0.04 0.04 0.03 0.03 0.03 0.04 0.05 0.05 0.05 0.04 0.04 0.04 0.04 0.04 0.04 0.04 0.03 0.03 0.03 0.02
0.03 0.03 0.04 0.05 0.03 0.01 0.01 0.01 0.01 0.01 0.01 0.01 0.01 0.02 0.02 0.02 0.02 0.03 0.04 0.04 0.04 0.04 0.05 0.04 0.03 0.02 0.02 0.02 0.02 0.03 0.04 0.04 0.05 0.04 0.04 0.04 0.03 0.03 0.03 0.03 0.02 0.01 0.01
0.02 0.01 0.01 0.01 0.01 0.01 0.01 0.01 0.01 0.01 0.01 0.01 0.01 0.01 0.01 0.01 0.02 0.02 0.03 0.03 0.03 0.03 0.04 0.04 0.03 0.02 0.02 0.02 0.02 0.02 0.02 0.02 0.02 0.03 0.03 0.03 0.02 0.02 0.02 0.02 0.02 0.01 0.01
MSLP
1012.29 1012.91 1013.55 1014.13 1014.60 1014.95 1015.19 1015.35 1015.49 1015.63 1015.83 1016.10 1016.42 1016.77 1017.11 1017.41 1017.65 1017.82 1017.93 1018.01 1018.07 1018.16 1018.28 1018.43 1018.61 1018.79 1018.94 1019.04 1019.07 1019.03 1018.94 1018.79 1018.61 1018.41 1018.18 1017.93 1017.64 1017.31 1016.91 1016.46 1015.95 1015.41 1014.87
1012.41 1013.07 1013.74 1014.33 1014.82 1015.17 1015.40 1015.55 1015.66 1015.78 1015.96 1016.20 1016.50 1016.84 1017.18 1017.49 1017.75 1017.94 1018.07 1018.16 1018.24 1018.33 1018.44 1018.59 1018.75 1018.91 1019.05 1019.14 1019.16 1019.13 1019.03 1018.89 1018.71 1018.49 1018.26 1017.99 1017.69 1017.32 1016.90 1016.42 1015.88 1015.31 1014.73
1012.61 1013.33 1014.02 1014.64 1015.12 1015.45 1015.66 1015.77 1015.84 1015.93 1016.06 1016.27 1016.54 1016.86 1017.20 1017.51 1017.78 1017.98 1018.13 1018.24 1018.33 1018.42 1018.53 1018.66 1018.80 1018.95 1019.07 1019.14 1019.16 1019.11 1019.02 1018.87 1018.69 1018.48 1018.24 1017.97 1017.65 1017.28 1016.85 1016.34 1015.78 1015.18 1014.58
1012.87 1013.65 1014.37 1014.99 1015.45 1015.75 1015.91 1015.98 1016.00 1016.03 1016.12 1016.29 1016.54 1016.84 1017.17 1017.48 1017.76 1017.98 1018.14 1018.26 1018.36 1018.45 1018.55 1018.66 1018.78 1018.90 1018.99 1019.04 1019.03 1018.97 1018.86 1018.71 1018.52 1018.31 1018.08 1017.81 1017.50 1017.14 1016.71 1016.21 1015.65 1015.03 1014.40
1013.18 1014.00 1014.74 1015.34 1015.77 1016.02 1016.12 1016.12 1016.09 1016.08 1016.13 1016.27 1016.50 1016.79 1017.11 1017.43 1017.72 1017.95 1018.13 1018.26 1018.35 1018.43 1018.51 1018.60 1018.69 1018.77 1018.82 1018.83 1018.79 1018.71 1018.57 1018.40 1018.20 1017.99 1017.76 1017.51 1017.22 1016.88 1016.47 1015.99 1015.44 1014.83 1014.18
1013.52 1014.36 1015.08 1015.64 1016.02 1016.21 1016.25 1016.20 1016.13 1016.09 1016.12 1016.25 1016.47 1016.76 1017.09 1017.42 1017.71 1017.95 1018.13 1018.25 1018.34 1018.40 1018.46 1018.51 1018.56 1018.59 1018.59 1018.56 1018.48 1018.35 1018.18 1017.98 1017.76 1017.53 1017.30 1017.06 1016.79 1016.48 1016.11 1015.67 1015.15 1014.56 1013.92
1013.87 1014.69 1015.37 1015.87 1016.18 1016.31 1016.31 1016.23 1016.14 1016.09 1016.12 1016.26 1016.50 1016.80 1017.14 1017.47 1017.77 1018.00 1018.17 1018.28 1018.35 1018.39 1018.41 1018.42 1018.42 1018.41 1018.36 1018.28 1018.14 1017.96 1017.75 1017.51 1017.26 1017.01 1016.77 1016.52 1016.27 1015.99 1015.66 1015.26 1014.78 1014.22 1013.59
1014.21 1014.97 1015.59 1016.02 1016.27 1016.34 1016.31 1016.22 1016.15 1016.13 1016.20 1016.37 1016.63 1016.96 1017.31 1017.65 1017.93 1018.15 1018.30 1018.38 1018.42 1018.42 1018.40 1018.37 1018.34 1018.28 1018.19 1018.05 1017.87 1017.64 1017.38 1017.09 1016.79 1016.51 1016.24 1015.98 1015.73 1015.46 1015.15 1014.78 1014.34 1013.82 1013.21
1014.52 1015.20 1015.73 1016.09 1016.27 1016.33 1016.29 1016.23 1016.20 1016.24 1016.37 1016.60 1016.91 1017.26 1017.62 1017.94 1018.21 1018.39 1018.51 1018.55 1018.54 1018.51 1018.46 1018.40 1018.33 1018.24 1018.11 1017.95 1017.73 1017.46 1017.15 1016.81 1016.47 1016.14 1015.82 1015.53 1015.25 1014.97 1014.67 1014.31 1013.89 1013.39 1012.81
1014.78 1015.36 1015.80 1016.09 1016.23 1016.28 1016.28 1016.28 1016.32 1016.44 1016.65 1016.95 1017.30 1017.67 1018.03 1018.33 1018.56 1018.71 1018.77 1018.77 1018.72 1018.65 1018.57 1018.50 1018.41 1018.31 1018.17 1017.99 1017.75 1017.45 1017.11 1016.73 1016.34 1015.95 1015.58 1015.24 1014.91 1014.60 1014.27 1013.90 1013.48 1012.98 1012.41
1014.97 1015.45 1015.80 1016.03 1016.16 1016.23 1016.28 1016.36 1016.50 1016.72 1017.01 1017.37 1017.76 1018.15 1018.49 1018.76 1018.94 1019.03 1019.04 1019.00 1018.92 1018.82 1018.73 1018.65 1018.56 1018.47 1018.34 1018.16 1017.92 1017.62 1017.25 1016.84 1016.40 1015.96 1015.53 1015.12 1014.74 1014.36 1013.99 1013.58 1013.13 1012.62 1012.03
1015.08 1015.46 1015.74 1015.94 1016.07 1016.18 1016.30 1016.47 1016.71 1017.02 1017.39 1017.80 1018.22 1018.60 1018.91 1019.14 1019.27 1019.31 1019.28 1019.19 1019.08 1018.98 1018.89 1018.81 1018.75 1018.68 1018.57 1018.42 1018.19 1017.89 1017.52 1017.09 1016.62 1016.13 1015.64 1015.17 1014.71 1014.27 1013.83 1013.36 1012.86 1012.31 1011.69
1015.11 1015.41 1015.64 1015.81 1015.96 1016.12 1016.32 1016.58 1016.90 1017.29 1017.72 1018.16 1018.58 1018.95 1019.22 1019.41 1019.49 1019.48 1019.41 1019.30 1019.18 1019.08 1019.00 1018.95 1018.91 1018.87 1018.80 1018.67 1018.47 1018.18 1017.82 1017.38 1016.89 1016.37 1015.84 1015.30 1014.78 1014.27 1013.76 1013.23 1012.66 1012.05 1011.38
1015.07 1015.31 1015.51 1015.67 1015.85 1016.06 1016.33 1016.65 1017.04 1017.48 1017.94 1018.39 1018.79 1019.13 1019.37 1019.51 1019.55 1019.51 1019.42 1019.30 1019.19 1019.10 1019.04 1019.02 1019.01 1018.99 1018.95 1018.85 1018.67 1018.40 1018.05 1017.61 1017.12 1016.58 1016.02 1015.45 1014.88 1014.31 1013.73 1013.13 1012.50 1011.82 1011.09
1014.97 1015.18 1015.36 1015.54 1015.75 1016.00 1016.32 1016.69 1017.11 1017.57 1018.02 1018.46 1018.83 1019.12 1019.32 1019.42 1019.44 1019.39 1019.30 1019.19 1019.10 1019.03 1019.00 1019.00 1019.01 1019.01 1018.98 1018.89 1018.72 1018.47 1018.13 1017.71 1017.22 1016.69 1016.12 1015.54 1014.94 1014.33 1013.70 1013.05 1012.35 1011.61 1010.80
1014.85 1015.04 1015.23 1015.43 1015.67 1015.96 1016.30 1016.69 1017.12 1017.56 1017.98 1018.38 1018.70 1018.95 1019.11 1019.19 1019.20 1019.16 1019.08 1019.00 1018.94 1018.90 1018.89 1018.90 1018.91 1018.91 1018.87 1018.78 1018.61 1018.36 1018.03 1017.63 1017.16 1016.65 1016.10 1015.52 1014.92 1014.30 1013.64 1012.95 1012.20 1011.38 1010.50
1014.71 1014.92 1015.13 1015.37 1015.64 1015.95 1016.30 1016.68 1017.08 1017.48 1017.86 1018.19 1018.47 1018.67 1018.81 1018.87 1018.89 1018.86 1018.82 1018.78 1018.74 1018.73 1018.73 1018.74 1018.74 1018.72 1018.66 1018.54 1018.36 1018.10 1017.78 1017.40 1016.96 1016.48 1015.96 1015.41 1014.83 1014.21 1013.55 1012.82 1012.03 1011.16 1010.20
1014.58 1014.82 1015.07 1015.34 1015.64 1015.97 1016.32 1016.68 1017.03 1017.38 1017.69 1017.96 1018.18 1018.34 1018.45 1018.52 1018.55 1018.55 1018.55 1018.54 1018.54 1018.54 1018.55 1018.54 1018.52 1018.47 1018.37 1018.22 1018.02 1017.76 1017.44 1017.08 1016.67 1016.23 1015.76 1015.25 1014.70 1014.10 1013.43 1012.69 1011.86 1010.94 1009.91
1014.45 1014.74 1015.04 1015.35 1015.68 1016.01 1016.35 1016.67 1016.98 1017.26 1017.51 1017.72 1017.88 1018.01 1018.10 1018.16 1018.21 1018.24 1018.27 1018.30 1018.32 1018.34 1018.33 1018.31 1018.26 1018.17 1018.04 1017.86 1017.64 1017.38 1017.07 1016.74 1016.38 1015.98 1015.56 1015.09 1014.58 1013.99 1013.33 1012.58 1011.71 1010.73 1009.63
1014.32 1014.66 1015.01 1015.37 1015.72 1016.06 1016.37 1016.66 1016.92 1017.14 1017.32 1017.47 1017.58 1017.67 1017.74 1017.81 1017.86 1017.92 1017.97 1018.02 1018.05 1018.07 1018.06 1018.02 1017.95 1017.83 1017.67 1017.48 1017.26 1017.00 1016.73 1016.43 1016.11 1015.77 1015.39 1014.97 1014.48 1013.91 1013.25 1012.47 1011.57 1010.54 1009.37
1014.17 1014.57 1014.96 1015.35 1015.72 1016.05 1016.35 1016.60 1016.81 1016.97 1017.09 1017.18 1017.25 1017.31 1017.36 1017.41 1017.47 1017.53 1017.59 1017.64 1017.67 1017.68 1017.67 1017.61 1017.52 1017.40 1017.24 1017.06 1016.86 1016.64 1016.40 1016.16 1015.90 1015.60 1015.27 1014.88 1014.42 1013.86 1013.18 1012.38 1011.43 1010.35 1009.13
1014.01 1014.44 1014.86 1015.27 1015.64 1015.97 1016.24 1016.45 1016.61 1016.72 1016.79 1016.83 1016.85 1016.87 1016.89 1016.92 1016.96 1017.01 1017.05 1017.09 1017.11 1017.11 1017.09 1017.03 1016.94 1016.83 1016.70 1016.56 1016.40 1016.24 1016.07 1015.89 1015.69 1015.46 1015.17 1014.80 1014.35 1013.78 1013.09 1012.26 1011.28 1010.15 1008.88
1013.83 1014.27 1014.70 1015.10 1015.45 1015.76 1016.00 1016.18 1016.29 1016.35 1016.37 1016.37 1016.35 1016.32 1016.31 1016.30 1016.30 1016.31 1016.32 1016.33 1016.33 1016.31 1016.28 1016.22 1016.16 1016.08 1016.00 1015.92 1015.84 1015.76 1015.68 1015.58 1015.45 1015.27 1015.02 1014.68 1014.23 1013.65 1012.94 1012.08 1011.07 1009.92 1008.62
1013.64 1014.06 1014.47 1014.84 1015.16 1015.42 1015.62 1015.76 1015.83 1015.86 1015.84 1015.79 1015.73 1015.66 1015.60 1015.54 1015.49 1015.45 1015.42 1015.38 1015.34 1015.30 1015.25 1015.21 1015.17 1015.14 1015.13 1015.13 1015.14 1015.16 1015.17 1015.15 1015.10 1014.97 1014.76 1014.44 1014.00 1013.42 1012.69 1011.82 1010.79 1009.63 1008.33
1013.46 1013.83 1014.19 1014.51 1014.78 1014.99 1015.15 1015.24 1015.28 1015.27 1015.22 1015.14 1015.04 1014.93 1014.82 1014.71 1014.60 1014.50 1014.40 1014.31 1014.22 1014.15 1014.09 1014.05 1014.04 1014.07 1014.12 1014.21 1014.31 1014.43 1014.53 1014.60 1014.61 1014.54 1014.37 1014.07 1013.64 1013.06 1012.33 1011.46 1010.44 1009.29 1008.02
1013.28 1013.60 1013.89 1014.14 1014.35 1014.52 1014.63 1014.68 1014.69 1014.66 1014.58 1014.48 1014.35 1014.21 1014.06 1013.90 1013.73 1013.57 1013.40 1013.25 1013.11 1012.99 1012.91 1012.87 1012.88 1012.95 1013.06 1013.22 1013.41 1013.60 1013.79 1013.93 1014.00 1013.98 1013.84 1013.57 1013.16 1012.59 1011.88 1011.03 1010.04 1008.93 1007.71
Thickness
5765 5764 5762 5760 5759 5757 5755 5754 5753 5752 5751 5749 5747 5745 5744 5742 5740 5738 5735 5733 5731 5729 5728 5727 5725 5724 5722 5721 5720 5718 5716 5714 5711 5713 5714 5715 5714 5714 5714 5713 5712 5711 5710
5764 5762 5760 5758 5757 5755 5753 5752 5751 5749 5749 5747 5745 5743 5742 5740 5738 5736 5734 5731 5729 5727 5725 5724 5722 5721 5719 5718 5717 5715 5714 5712 5710 5709 5710 5710 5710 5710 5710 5708 5708 5707 5706
5762 5760 5757 5755 5753 5752 5750 5749 5747 5746 5746 5745 5743 5741 5740 5738 5736 5735 5733 5730 5728 5725 5723 5721 5720 5718 5716 5715 5713 5712 5711 5710 5708 5706 5705 5706 5705 5705 5704 5703 5703 5702 5701
5759 5757 5754 5753 5751 5749 5746 5745 5743 5743 5742 5741 5740 5739 5738 5736 5734 5732 5730 5727 5725 5723 5721 5719 5717 5716 5714 5712 5711 5709 5707 5706 5704 5702 5701 5700 5699 5699 5698 5697 5696 5696 5695
5756 5753 5752 5751 5749 5746 5744 5742 5741 5739 5738 5737 5736 5735 5734 5733 5731 5729 5726 5724 5722 5720 5718 5716 5715 5714 5713 5711 5709 5707 5705 5702 5700 5698 5696 5695 5694 5692 5692 5691 5690 5690 5690
5752 5750 5749 5747 5745 5742 5740 5739 5737 5735 5733 5732 5731 5731 5730 5730 5729 5726 5723 5720 5718 5716 5714 5713 5712 5711 5710 5708 5707 5705 5703 5699 5697 5694 5692 5690 5690 5689 5687 5686 5684 5682 5683
5747 5746 5744 5741 5739 5737 5736 5733 5732 5730 5728 5727 5726 5725 5725 5725 5724 5722 5719 5716 5714 5713 5711 5709 5709 5708 5706 5704 5702 5701 5699 5697 5695 5692 5689 5688 5686 5685 5682 5680 5678 5677 5677
5742 5740 5738 5735 5734 5732 5731 5727 5725 5724 5723 5721 5720 5719 5719 5719 5718 5715 5713 5710 5709 5708 5706 5705 5702 5701 5700 5697 5696 5694 5693 5691 5690 5687 5686 5685 5683 5681 5678 5676 5674 5672 5671
5733 5732 5731 5729 5728 5726 5724 5722 5720 5718 5717 5715 5715 5713 5712 5712 5711 5709 5706 5704 5702 5701 5700 5698 5696 5695 5694 5691 5688 5686 5685 5684 5683 5681 5680 5678 5676 5674 5672 5669 5666 5664 5664
5726 5725 5725 5724 5722 5720 5718 5716 5714 5711 5710 5709 5707 5706 5705 5704 5704 5702 5699 5697 5695 5694 5693 5692 5689 5688 5687 5683 5681 5678 5677 5677 5674 5673 5670 5669 5668 5666 5664 5662 5660 5657 5656
5721 5719 5718 5716 5715 5713 5711 5709 5707 5704 5702 5700 5698 5697 5696 5696 5696 5694 5691 5689 5688 5686 5685 5684 5683 5680 5678 5676 5673 5672 5671 5670 5666 5664 5662 5660 5659 5658 5656 5655 5653 5652 5650
5714 5712 5710 5709 5707 5705 5702 5700 5697 5695 5691 5689 5687 5686 5685 5686 5685 5685 5682 5680 5679 5677 5676 5676 5674 5672 5670 5668 5665 5664 5662 5659 5657 5655 5653 5652 5650 5649 5648 5647 5646 5644 5644
5705 5703 5701 5700 5698 5696 5693 5690 5687 5685 5682 5680 5676 5675 5674 5674 5674 5674 5673 5671 5670 5668 5667 5666 5664 5662 5660 5658 5656 5654 5652 5649 5647 5645 5644 5643 5641 5641 5640 5639 5638 5636 5635
5695 5693 5692 5690 5688 5687 5684 5682 5679 5676 5673 5670 5668 5665 5664 5664 5663 5662 5661 5661 5660 5658 5656 5655 5653 5651 5649 5647 5646 5644 5641 5639 5638 5636 5635 5633 5631 5630 5630 5629 5628 5627 5626
5687 5684 5682 5680 5679 5676 5674 5672 5670 5668 5665 5662 5660 5658 5655 5654 5653 5651 5650 5649 5648 5646 5644 5643 5641 5640 5638 5636 5634 5631 5629 5628 5626 5625 5623 5622 5620 5619 5618 5617 5616 5615 5614
5677 5675 5673 5671 5669 5667 5664 5661 5660 5658 5656 5654 5652 5649 5647 5645 5643 5642 5640 5638 5636 5634 5632 5631 5630 5628 5626 5624 5622 5620 5617 5616 5614 5613 5612 5610 5609 5607 5606 5605 5604 5603 5603
5668 5666 5664 5662 5660 5657 5655 5652 5649 5648 5646 5644 5642 5639 5637 5635 5634 5632 5630 5628 5626 5622 5620 5618 5617 5615 5613 5611 5609 5607 5606 5604 5602 5601 5600 5599 5598 5596 5594 5593 5592 5591 5590
5660 5658 5656 5653 5651 5648 5645 5643 5640 5639 5636 5634 5632 5629 5627 5625 5623 5621 5619 5617 5614 5612 5609 5607 5605 5603 5602 5600 5599 5597 5594 5592 5590 5589 5589 5587 5585 5584 5583 5583 5582 5580 5580
5651 5649 5646 5644 5641 5638 5635 5633 5630 5629 5626 5624 5622 5620 5617 5615 5613 5610 5608 5606 5604 5601 5598 5595 5593 5592 5590 5588 5586 5585 5583 5581 5579 5578 5577 5575 5574 5573 5572 5571 5571 5569 5568
5642 5640 5637 5634 5631 5628 5625 5623 5621 5618 5616 5613 5611 5610 5608 5605 5603 5600 5597 5594 5592 5589 5586 5584 5582 5579 5578 5576 5574 5572 5571 5569 5568 5566 5564 5563 5561 5561 5560 5559 5559 5559 5559
5632 5630 5628 5625 5622 5619 5616 5614 5611 5609 5606 5604 5602 5600 5598 5596 5593 5590 5587 5584 5581 5578 5576 5573 5571 5568 5566 5564 5562 5560 5558 5556 5555 5553 5551 5550 5549 5549 5548 5548 5548 5547 5547
5624 5621 5618 5616 5613 5610 5607 5605 5602 5600 5598 5595 5593 5591 5588 5586 5583 5581 5578 5575 5572 5569 5566 5562 5559 5556 5554 5551 5549 5548 5546 5544 5542 5541 5540 5539 5538 5538 5537 5536 5536 5535 5534
5614 5612 5609 5607 5604 5601 5599 5596 5594 5592 5589 5587 5584 5582 5580 5576 5573 5570 5567 5565 5562 5558 5555 5551 5548 5546 5543 5540 5537 5535 5534 5532 5530 5529 5528 5528 5527 5526 5524 5524 5523 5522 5522
5606 5603 5601 5598 5596 5594 5591 5589 5586 5583 5581 5578 5575 5573 5569 5566 5562 5560 5557 5554 5550 5547 5544 5540 5538 5535 5532 5530 5527 5525 5522 5520 5519 5518 5517 5516 5515 5513 5512 5512 5511 5511 5509
5598 5596 5593 5591 5588 5586 5583 5580 5577 5574 5571 5568 5566 5562 5559 5555 5552 5549 5546 5542 5539 5536 5533 5529 5526 5524 5522 5519 5517 5514 5512 5510 5508 5506 5504 5503 5502 5501 5500 5499 5498 5498 5497
5591 5588 5586 5583 5580 5577 5575 5572 5569 5565 5561 5558 5555 5552 5548 5545 5542 5538 5535 5531 5528 5525 5522 5519 5516 5514 5511 5508 5505 5503 5501 5499 5496 5494 5492 5491 5489 5488 5487 5486 5485 5485 5485